{"data":{"norad_id":63442,"intl_designator":"2025-069K","name":"STARLINK-33762","alt_names":[],"object_type":"PAYLOAD","status":"ACTIVE","operator":null,"country":"US","launch_date":"2025-04-04","launch_site_code":"AFWTR","launch_vehicle":null,"mission":null,"orbit_class":"UNKNOWN","rcs_meters":null,"size_class":null,"mass_kg":null,"dimensions":null,"purposes":["comms"],"wikipedia_slug":null,"has_3d_model":false,"image_url":null,"decayed_at":null,"tle_current":{"epoch":"2026-05-24T23:59:50.680896Z","epoch_age_seconds":71718,"freshness":"FRESH","line1":"1 63442U 25069K   26144.99989214  .00038757  00000+0  89462-3 0  9990","line2":"2 63442  53.1586 145.5080 0001953  84.9846 275.1383 15.42191696 65126","mean_motion":15.42191696,"eccentricity":0.0001953,"inclination_deg":53.1586,"raan_deg":145.508,"arg_perigee_deg":84.9846,"mean_anomaly_deg":275.1383,"bstar":0.00089462,"rev_number":6512,"period_min":93.373606130479,"perigee_km":438.31072456356,"apogee_km":440.97374913347,"semimajor_km":6817.7792368485,"source":"CELESTRAK","updated_at":"2026-05-25T13:38:19.999795Z"}}}